Location: Pl�tzky
(52.0521°N, 11.8020°E)
Time: 21:45:11
(UTC+00:00)

Cosmos 1697 Rocket - Pass Details

Date: 22 November 2019
Orbit: 833 x 842 km, 71.0° (Epoch: 06 December)

Event Time Altitude Azimuth Distance (km) Brightness Sun altitude
Rises 17:23:02 0° 228° (SW) 3,390 6.8 -19.4°
Reaches altitude 10° 17:25:34 10° 234° (SW) 2,458 6.0 -19.8°
Maximum altitude 17:31:01 49° 309° (NW) 1,080 3.5 -20.6°
Enters shadow 17:35:32 15° 21° (NNE) 2,122 4.5 -21.3°
